CW5834 Weather Reports


time (UTC)temp
C
wind
direction
speed
KPH
gust
KPH
rain 1hr
cm
rain 24hr
cm
rain mn
cm
humidity
%
barometer
mb
20260901161017 30 293 3.2 6.4 0.00 0.00 0.00 64 1023.3
20260901160016 30 315 4.8 12.9 0.00 0.00 0.00 64 1023.3
20260901155016 30 113 1.6 3.2 0.00 0.00 0.00 71 1023.5
20260901154017 30 225 3.2 6.4 0.00 0.00 0.00 70 1023.3
20260901153036 29 225 1.6 4.8 0.00 0.00 0.00 69 1023.3
20260901152017 29 203 3.2 4.8 0.00 0.00 0.00 68 1023.4
20260901151016 29 270 3.2 6.4 0.00 0.00 0.00 69 1023.4
20260901150017 28 338 1.6 4.8 0.00 0.00 0.00 73 1023.3
20260901145036 28 270 1.6 4.8 0.00 0.00 0.00 70 1023.3
20260901144016 28 135 3.2 4.8 0.00 0.00 0.00 72 1023.4
20260901143057 28 180 1.6 6.4 0.00 0.00 0.00 73 1023.5
20260901142036 27 203 1.6 3.2 0.00 0.00 0.00 73 1023.4
20260901141016 27 293 1.6 3.2 0.00 0.00 0.00 77 1023.3
20260901140016 27 338 1.6 3.2 0.00 0.00 0.00 78 1023.3
20260901135016 27 0 1.6 3.2 0.00 0.00 0.00 81 1023.4
20260901134016 26 0.0 3.2 0.00 0.00 0.00 81 1023.2
20260901133016 25 0.0 3.2 0.00 0.00 0.00 85 1023.2
20260901132016 25 0.0 3.2 0.00 0.00 0.00 88 1023.2
20260901131016 24 0.0 3.2 0.00 0.00 0.00 90 1023.0
20260901130042 23 113 1.6 3.2 0.00 0.00 0.00 92 1023.2
20260901125016 22 0.0 3.2 0.00 0.00 0.00 95 1023.2
20260901124036 21 0.0 3.2 0.00 0.00 0.00 95 1023.2
20260901123036 21 0.0 0.0 0.00 0.00 0.00 95 1023.1
20260901122036 21 0.0 3.2 0.00 0.00 0.00 95 1023.0
20260901121016 21 0.0 3.2 0.00 0.00 0.00 96 1022.9
20260901120016 20 0.0 3.2 0.00 0.00 0.00 96 1022.8
20260901115016 20 0.0 0.0 0.00 0.00 0.00 95 1022.6
20260901114036 20 0.0 3.2 0.00 0.00 0.00 95 1022.5
20260901113036 20 0.0 1.6 0.00 0.00 0.00 96 1022.5
20260901112036 20 0.0 3.2 0.00 0.00 0.00 96 1022.3
20260901111016 19 0.0 3.2 0.00 0.00 0.00 95 1022.1
20260901110016 20 0.0 3.2 0.00 0.00 0.00 95 1022.3
20260901105016 20 0.0 0.0 0.00 0.00 0.00 95 1022.1
20260901104016 20 0.0 3.2 0.00 0.00 0.00 95 1021.8
20260901103016 20 0.0 3.2 0.00 0.00 0.00 95 1021.9
20260901102016 20 0.0 1.6 0.00 0.00 0.00 95 1021.7
20260901101016 20 0.0 0.0 0.00 0.00 0.00 95 1021.6
20260901100016 20 0.0 3.2 0.00 0.00 0.00 95 1021.5
20260901095016 20 0.0 3.2 0.00 0.00 0.00 95 1021.5
20260901094016 20 0 1.6 3.2 0.00 0.00 0.00 95 1021.4
20260901093019 20 0.0 0.0 0.00 0.00 0.00 95 1021.4
20260901092016 20 0.0 1.6 0.00 0.00 0.00 95 1021.3
20260901091016 20 0.0 3.2 0.00 0.00 0.00 95 1021.3
20260901090016 20 0.0 3.2 0.00 0.00 0.00 95 1021.2
20260901085016 20 0.0 0.0 0.00 0.00 0.00 95 1021.4
20260901084016 20 0 1.6 1.6 0.00 0.00 0.00 95 1021.4
20260901083016 20 0.0 1.6 0.00 0.00 0.00 94 1021.4
20260901082015 20 0.0 3.2 0.00 0.00 0.00 94 1021.4
20260901081016 20 0.0 3.2 0.00 0.00 0.00 94 1021.7
20260901080015 20 0.0 3.2 0.00 0.00 0.00 94 1021.7
20260901075015 21 0.0 3.2 0.00 0.00 0.00 95 1021.6
20260901074015 20 0.0 3.2 0.00 0.00 0.00 94 1021.5
20260901073055 20 0.0 3.2 0.00 0.00 0.00 94 1021.5
20260901072035 20 0.0 3.2 0.00 0.00 0.00 94 1021.6
20260901071016 20 0.0 0.0 0.00 0.00 0.00 94 1021.7
20260901070017 20 45 1.6 3.2 0.00 0.00 0.00 94 1021.9
20260901065035 20 0.0 3.2 0.00 0.00 0.00 94 1021.9
20260901064017 20 45 1.6 1.6 0.00 0.00 0.00 94 1022.0
20260901063017 20 0.0 3.2 0.00 0.00 0.00 94 1021.9
20260901062017 20 0.0 1.6 0.00 0.00 0.00 93 1022.0
20260901061037 20 0.0 0.0 0.00 0.00 0.00 93 1022.2
20260901060021 20 0.0 1.6 0.00 0.00 0.00 93 1022.1
20260901055017 20 0.0 0.0 0.00 0.00 0.00 93 1022.1
20260901054017 20 0.0 0.0 0.00 0.00 0.00 92 1022.1
20260901053017 21 0.0 3.2 0.00 0.00 0.00 92 1022.2
20260901052017 21 0.0 3.2 0.00 0.00 0.00 92 1022.3
20260901051057 21 0.0 0.0 0.00 0.00 0.00 92 1022.1
20260901050017 21 0.0 0.0 0.00 0.00 0.00 91 1022.1
20260901045017 21 0.0 3.2 0.00 0.00 0.00 91 1022.0
20260901044017 21 0.0 1.6 0.00 0.00 0.00 91 1021.8
20260901043017 21 45 1.6 1.6 0.00 0.00 0.00 91 1021.9
20260901042037 21 0.0 1.6 0.00 0.00 0.00 90 1021.9
20260901041017 21 45 1.6 3.2 0.00 0.00 0.00 91 1021.8
20260901040037 21 0.0 3.2 0.00 0.00 0.00 91 1021.7
20260901035016 21 0.0 0.0 0.00 0.00 0.00 91 1021.5
20260901034016 21 0.0 0.0 0.00 0.00 0.00 91 1021.7
20260901033016 21 0.0 1.6 0.00 0.00 0.00 91 1021.7
20260901032036 21 0.0 1.6 0.00 0.00 0.00 90 1021.6
20260901031056 21 0.0 0.0 0.00 0.00 0.00 91 1021.8
20260901030016 21 0.0 1.6 0.00 0.00 0.00 91 1021.6
20260901025018 21 0.0 1.6 0.00 0.00 0.00 91 1021.7
20260901024016 21 0.0 0.0 0.00 0.00 0.00 91 1021.6
20260901023016 21 0.0 3.2 0.00 0.00 0.00 91 1021.5
20260901022016 22 0.0 0.0 0.00 0.00 0.00 91 1021.7
20260901021016 22 0.0 0.0 0.00 0.00 0.00 90 1021.5
20260901020036 22 0.0 0.0 0.00 0.00 0.00 90 1021.5
20260901015036 22 0.0 3.2 0.00 0.00 0.00 89 1021.5
20260901014016 22 0.0 3.2 0.00 0.00 0.00 89 1021.3
20260901013015 22 0.0 1.6 0.00 0.00 0.00 89 1021.1
20260901012016 23 0.0 0.0 0.00 0.00 0.00 88 1021.2
20260901011015 23 0.0 0.0 0.00 0.00 0.00 87 1021.0
20260901010036 23 0.0 3.2 0.00 0.00 0.00 86 1020.8
20260901005015 23 0.0 0.0 0.00 0.00 0.00 85 1020.8
20260901004016 24 0.0 3.2 0.00 0.00 0.00 85 1020.8
20260901003015 24 0.0 1.6 0.00 0.00 0.00 84 1020.8
20260901002015 25 0.0 0.0 0.00 0.00 0.00 80 1020.6
20260901001015 25 0.0 0.0 0.00 0.00 0.00 79 1020.7
20260901000036 25 0.0 3.2 0.00 0.00 0.00 78 1020.5
20260831235016 26 338 1.6 1.6 0.00 0.00 0.00 75 1020.5
20260831234015 26 0.0 1.6 0.00 0.00 0.00 74 1020.5
20260831233015 27 0.0 3.2 0.00 0.00 0.00 75 1020.4
20260831232018 27 315 1.6 1.6 0.00 0.00 0.00 73 1020.8
20260831231015 27 315 1.6 1.6 0.00 0.00 0.00 70 1020.9
20260831230037 28 315 1.6 1.6 0.00 0.00 0.00 69 1020.8
20260831225015 29 315 1.6 1.6 0.00 0.00 0.00 67 1021.0
20260831224017 30 338 1.6 1.6 0.00 0.00 0.00 64 1021.0
20260831223017 31 315 1.6 1.6 0.00 0.00 0.00 64 1021.4
20260831222017 31 0 1.6 3.2 0.00 0.00 0.00 61 1021.4
20260831221017 31 23 1.6 1.6 0.00 0.00 0.00 59 1021.3
20260831220037 31 0 1.6 3.2 0.00 0.00 0.00 61 1021.3
20260831215037 31 0 3.2 6.4 0.00 0.00 0.00 60 1021.3
20260831214017 31 0 3.2 4.8 0.00 0.00 0.00 59 1021.5
20260831213017 31 338 3.2 6.4 0.00 0.00 0.00 59 1021.4
20260831212017 31 338 4.8 11.3 0.00 0.00 0.00 58 1021.4
20260831211017 31 315 1.6 6.4 0.00 0.00 0.00 56 1021.4
20260831210037 31 0 3.2 4.8 0.00 0.00 0.00 58 1021.5
20260831205017 31 315 3.2 6.4 0.00 0.00 0.00 57 1021.6
20260831204057 31 315 3.2 6.4 0.00 0.00 0.00 56 1021.7
20260831203017 31 293 3.2 6.4 0.00 0.00 0.00 58 1021.9
20260831202017 31 23 1.6 4.8 0.00 0.00 0.00 59 1021.9
20260831201017 31 315 4.8 12.9 0.00 0.00 0.00 60 1022.1
20260831200017 31 315 4.8 11.3 0.00 0.00 0.00 61 1022.2
20260831195017 31 338 4.8 8.0 0.00 0.00 0.00 62 1022.3
20260831194027 31 315 9.7 16.1 0.00 0.00 0.00 60 1022.3
20260831193017 32 158 4.8 12.9 0.00 0.00 0.00 55 1022.4
20260831192017 32 315 4.8 9.7 0.00 0.00 0.00 53 1022.5
20260831191017 31 225 1.6 4.8 0.00 0.00 0.00 59 1022.7
20260831190017 31 0 3.2 6.4 0.00 0.00 0.00 60 1022.6
20260831185017 31 270 4.8 8.0 0.00 0.00 0.00 59 1022.8
20260831184017 31 23 3.2 6.4 0.00 0.00 0.00 58 1022.9
20260831183017 32 0 3.2 6.4 0.00 0.00 0.00 61 1023.1
20260831182037 31 113 3.2 6.4 0.00 0.00 0.00 56 1023.0
20260831181017 31 158 3.2 6.4 0.00 0.00 0.00 60 1023.2
20260831180017 31 135 1.6 4.8 0.00 0.00 0.00 58 1023.2
20260831175037 31 338 1.6 4.8 0.00 0.00 0.00 63 1023.3
20260831174017 30 203 1.6 4.8 0.00 0.00 0.00 59 1023.2
20260831173017 30 203 3.2 6.4 0.00 0.00 0.00 63 1023.4
20260831172017 30 68 3.2 8.0 0.00 0.00 0.00 69 1023.3
20260831171037 28 338 3.2 8.0 0.00 0.00 0.00 69 1023.4
20260831170017 28 0 3.2 4.8 0.00 0.00 0.00 71 1023.5
20260831165017 30 315 3.2 8.0 0.00 0.00 0.00 66 1023.7
20260831164017 29 203 3.2 4.8 0.00 0.00 0.00 70 1023.6
20260831163016 29 225 3.2 6.4 0.00 0.00 0.00 69 1023.7
20260831162016 29 270 3.2 9.7 0.00 0.00 0.00 68 1023.8